STARLINK-11310 [DTC]

Last updated on Mon Oct 21 2024 00:02:04 GMT+0000 (Coordinated Universal Time)

1 61212U 24171N 24294.58334491 -.00018093 00000+0 -14473-3 0 9999 2 61212 53.1594 146.5092 0001534 102.2575 221.1979 15.69719889 6003
UTC large
Height (km)
Speed (km/s)
/
Latitude / Longitude
Inclination (degrees)
Orbital Period (minutes)
Azimuth
Elevation
Range (km)
Doppler Factor

Next 0 passes for location: London (51.5072 / 0.1276)

Sorry there are no passes over London.